Location: Bamazo
(6.7448°N, 10.8189°W)
Time: 16:16:00
(UTC+00:00)

Okean 2 Rocket - Pass Details

Date: 18 September 2020
Orbit: 616 x 642 km, 82.5° (Epoch: 24 October)

Event Time Altitude Azimuth Distance (km) Brightness Sun altitude
Rises 19:29:09 0° 171° (S) 2,941 6.4 -12.7°
Reaches altitude 10° 19:31:30 10° 163° (SSE) 2,031 5.5 -13.3°
Maximum altitude 19:35:45 41° 93° (E) 926 3.5 -14.4°
Drops below altitude 10° 19:39:58 10° 23° (NNE) 2,024 5.5 -15.4°
Sets 19:42:18 0° 16° (NNE) 2,929 6.4 -16.0°
